GW7053 Weather Reports


time (UTC)temp
F
wind
direction
speed
knots
gust
knots
rain 1hr
in
rain 24hr
in
rain mn
in
humidity
%
barometer
mb
20260505151832 74 251 0.9 3.5 0.00 0.00 0.00 50 1019.6
20260505151329 74 227 0.9 1.7 0.00 0.00 0.00 52 1019.5
20260505150826 74 158 1.7 3.5 0.00 0.00 0.00 50 1019.5
20260505150323 72 241 1.7 7.0 0.00 0.00 0.00 52 1019.5
20260505140252 69 258 0.9 3.5 0.00 0.00 0.00 59 1019.4
20260505130216 67 151 1.7 1.7 0.00 0.00 0.00 61 1019.4
20260505124706 66 98 1.7 3.5 0.00 0.00 0.00 61 1019.8
20260505124203 66 86 1.7 6.1 0.00 0.00 0.00 61 1019.6
20260505123659 66 48 0.0 1.7 0.00 0.00 0.00 62 1019.6
20260505123156 65 63 0.0 1.7 0.00 0.00 0.00 64 1019.7
20260505122652 63 52 0.0 1.7 0.00 0.00 0.00 66 1019.7
20260505122149 63 34 0.0 1.7 0.00 0.00 0.00 67 1019.6
20260505121646 62 96 0.9 0.9 0.00 0.00 0.00 68 1019.5
20260505121143 61 150 1.7 2.6 0.00 0.00 0.00 70 1019.4
20260505120639 60 216 1.7 1.7 0.00 0.00 0.00 71 1019.7
20260505120135 60 59 0.0 0.9 0.00 0.00 0.00 73 1019.6
20260505115629 59 87 0.0 0.9 0.00 0.00 0.00 74 1019.5
20260505115127 59 194 0.9 3.5 0.00 0.00 0.00 75 1019.5
20260505114624 58 56 0.0 0.0 0.00 0.00 0.00 78 1019.3
20260505114120 57 69 0.0 0.0 0.00 0.00 0.00 80 1019.3
20260505113617 55 52 0.0 0.0 0.00 0.00 0.00 85 1019.5
20260505113114 54 54 0.0 0.0 0.00 0.00 0.00 87 1019.5
20260505112610 53 31 0.0 0.0 0.00 0.00 0.00 88 1019.4
20260505112109 52 28 0.0 0.0 0.00 0.00 0.00 89 1019.1
20260505111608 52 32 0.0 0.0 0.00 0.00 0.00 89 1018.9
20260505111103 51 47 0.0 0.0 0.00 0.00 0.00 90 1019.1
20260505110600 51 52 0.0 0.0 0.00 0.00 0.00 90 1018.9
20260505102033 51 40 0.0 0.0 0.00 0.00 0.00 89 1018.5
20260505101531 51 40 0.0 0.0 0.00 0.00 0.00 89 1018.3
20260505101027 51 33 0.0 0.0 0.00 0.00 0.00 89 1018.2
20260505100524 51 33 0.0 0.0 0.00 0.00 0.00 88 1018.4
20260505100021 51 33 0.0 0.0 0.00 0.00 0.00 87 1018.4
20260505095517 52 33 0.0 0.0 0.00 0.00 0.00 87 1018.5
20260505095014 52 33 0.0 0.0 0.00 0.00 0.00 87 1018.3
20260505094510 52 41 0.0 0.0 0.00 0.00 0.00 87 1018.1
20260505094007 52 46 0.0 0.0 0.00 0.00 0.00 87 1018.2
20260505093503 52 47 0.0 0.0 0.00 0.00 0.00 86 1018.2
20260505093000 53 55 0.0 0.0 0.00 0.00 0.00 85 1018.1
20260505092458 53 68 0.0 0.0 0.00 0.00 0.00 85 1018.1
20260505091955 53 49 0.0 0.0 0.00 0.00 0.00 84 1017.9
20260505091453 53 49 0.0 0.0 0.00 0.00 0.00 83 1018.0
20260505090951 53 49 0.0 0.0 0.00 0.00 0.00 83 1018.0
20260505090449 54 63 0.0 0.0 0.00 0.00 0.00 82 1018.0
20260505085946 54 43 0.0 0.0 0.00 0.00 0.00 82 1017.9
20260505085443 54 59 0.0 0.0 0.00 0.00 0.00 81 1018.1
20260505084942 55 66 0.0 0.0 0.00 0.00 0.00 80 1017.8
20260505084440 55 35 0.0 0.0 0.00 0.00 0.00 79 1017.8
20260505083937 55 45 0.0 0.0 0.00 0.00 0.00 78 1017.9
20260505083434 56 50 0.0 0.0 0.00 0.00 0.00 77 1017.9
20260505082931 56 50 0.0 0.0 0.00 0.00 0.00 76 1018.0
20260505082426 56 43 0.0 0.0 0.00 0.00 0.00 76 1017.9
20260505081924 56 35 0.0 0.0 0.00 0.00 0.00 75 1017.7
20260505081420 56 47 0.0 0.0 0.00 0.00 0.00 75 1017.8
20260505080917 56 33 0.0 0.0 0.00 0.00 0.00 75 1017.7
20260505080413 57 60 0.0 0.0 0.00 0.00 0.00 75 1017.7
20260505075908 57 352 0.0 0.0 0.00 0.00 0.00 75 1017.7
20260505075405 57 70 0.0 0.0 0.00 0.00 0.00 75 1017.8
20260505074903 57 38 0.0 0.0 0.00 0.00 0.00 75 1017.6
20260505074400 57 39 0.0 0.0 0.00 0.00 0.00 74 1017.5
20260505073857 57 37 0.0 0.0 0.00 0.00 0.00 74 1017.6
20260505073355 57 38 0.0 0.0 0.00 0.00 0.00 73 1017.6
20260505072852 58 39 0.0 0.0 0.00 0.00 0.00 73 1017.4
20260505072348 58 48 0.0 0.0 0.00 0.00 0.00 72 1017.5
20260505071844 59 48 0.0 0.0 0.00 0.00 0.00 71 1017.5
20260505071340 59 63 0.0 0.0 0.00 0.00 0.00 69 1017.4
20260505070839 59 304 0.9 0.9 0.00 0.00 0.00 69 1017.5
20260505070335 60 50 0.0 0.0 0.00 0.00 0.00 68 1017.3
20260505065830 60 80 0.0 0.9 0.00 0.00 0.00 68 1017.3
20260505065327 60 55 0.0 0.0 0.00 0.00 0.00 67 1017.6
20260505064824 60 45 0.0 0.0 0.00 0.00 0.00 67 1017.5
20260505064321 61 57 0.0 0.0 0.00 0.00 0.00 66 1017.5
20260505063820 61 77 0.0 0.9 0.00 0.00 0.00 65 1017.5
20260505063315 61 108 0.9 1.7 0.00 0.00 0.00 65 1017.4
20260505062812 61 36 0.0 2.6 0.00 0.00 0.00 64 1017.5
20260505062310 61 99 0.9 1.7 0.00 0.00 0.00 64 1017.3
20260505061806 62 43 0.0 0.9 0.00 0.00 0.00 64 1017.4
20260505061304 62 29 0.0 1.7 0.00 0.00 0.00 63 1017.3
20260505060801 62 320 0.9 2.6 0.00 0.00 0.00 63 1017.4
20260505060258 62 335 0.0 1.7 0.00 0.00 0.00 63 1017.5
20260505055754 62 305 0.9 0.9 0.00 0.00 0.00 63 1017.5
20260505055250 62 65 0.0 2.6 0.00 0.00 0.00 63 1017.6
20260505054747 62 83 0.9 1.7 0.00 0.00 0.00 63 1017.4
20260505054245 62 100 1.7 3.5 0.00 0.00 0.00 63 1017.5
20260505053743 62 71 0.0 2.6 0.00 0.00 0.00 62 1017.6
20260505053239 62 231 2.6 2.6 0.00 0.00 0.00 63 1017.5
20260505052737 62 115 0.0 0.9 0.00 0.00 0.00 63 1017.6
20260505052234 63 146 0.9 1.7 0.00 0.00 0.00 62 1017.7
20260505051731 63 146 0.9 2.6 0.00 0.00 0.00 62 1017.5
20260505051229 63 52 0.0 0.9 0.00 0.00 0.00 62 1017.7
20260505050726 63 90 0.0 1.7 0.00 0.00 0.00 61 1017.8
20260505050224 64 110 0.9 0.9 0.00 0.00 0.00 61 1017.8
20260505041654 65 92 0.9 1.7 0.00 0.00 0.00 59 1017.7
20260505041152 65 101 0.0 7.0 0.00 0.00 0.00 58 1017.3
20260505040648 65 280 2.6 6.1 0.00 0.00 0.00 58 1017.5
20260505040146 65 121 0.9 2.6 0.00 0.00 0.00 58 1017.6
20260505035642 66 209 2.6 5.2 0.00 0.00 0.00 57 1017.6
20260505035138 66 224 0.9 5.2 0.00 0.00 0.00 57 1017.5
20260505034635 66 220 0.9 3.5 0.00 0.00 0.00 57 1017.7
20260505034132 66 197 1.7 1.7 0.00 0.00 0.00 57 1017.5
20260505033628 66 223 1.7 1.7 0.00 0.00 0.00 57 1017.6
20260505033127 66 294 1.7 2.6 0.00 0.00 0.00 56 1017.6
20260505032625 66 208 2.6 3.5 0.00 0.00 0.00 56 1017.4
20260505032121 66 63 0.9 2.6 0.00 0.00 0.00 56 1017.5
20260505031618 67 226 1.7 3.5 0.00 0.00 0.00 56 1017.5
20260505031114 67 237 0.9 2.6 0.00 0.00 0.00 56 1017.5
20260505030611 67 53 0.9 1.7 0.00 0.00 0.00 56 1017.4
20260505030107 67 114 1.7 6.1 0.00 0.00 0.00 55 1017.5
20260505025603 67 194 1.7 8.7 0.00 0.00 0.00 56 1017.3
20260505025102 68 220 0.9 3.5 0.00 0.00 0.00 55 1017.5
20260505024559 68 175 0.9 6.1 0.00 0.00 0.00 55 1017.5
20260505024056 68 167 3.5 5.2 0.00 0.00 0.00 55 1017.5
20260505023553 68 203 2.6 3.5 0.00 0.00 0.00 55 1017.5
20260505023051 68 331 0.9 1.7 0.00 0.00 0.00 55 1017.3
20260505022548 68 230 4.3 6.1 0.00 0.00 0.00 54 1017.2
20260505022045 69 202 1.7 3.5 0.00 0.00 0.00 54 1017.2
20260505021542 69 162 3.5 6.1 0.00 0.00 0.00 53 1017.2
20260505021038 69 69 1.7 7.8 0.00 0.00 0.00 52 1017.2
20260505020538 69 145 1.7 2.6 0.00 0.00 0.00 51 1017.2
20260505020035 69 217 4.3 6.1 0.00 0.00 0.00 50 1017.0
20260505015532 69 260 0.9 5.2 0.00 0.00 0.00 48 1017.0
20260505015029 70 206 0.9 2.6 0.00 0.00 0.00 46 1017.0
20260505014526 70 211 2.6 3.5 0.00 0.00 0.00 45 1017.0
20260505014023 70 65 0.9 3.5 0.00 0.00 0.00 42 1016.9
20260505013520 70 164 1.7 2.6 0.00 0.00 0.00 41 1016.8
20260505013018 71 100 0.9 0.9 0.00 0.00 0.00 41 1016.7
20260505012516 71 184 0.0 1.7 0.00 0.00 0.00 40 1016.6
20260505012012 71 53 0.0 0.9 0.00 0.00 0.00 40 1016.5
20260505011508 71 339 1.7 2.6 0.00 0.00 0.00 40 1016.5
20260505011005 71 122 0.0 0.9 0.00 0.00 0.00 40 1016.4
20260505010500 71 70 0.0 2.6 0.00 0.00 0.00 40 1016.5
20260505005957 71 90 0.0 1.7 0.00 0.00 0.00 39 1016.3
20260505005454 72 35 0.9 1.7 0.00 0.00 0.00 39 1016.1
20260505004951 72 88 0.9 0.9 0.00 0.00 0.00 39 1016.2
20260505004448 72 219 0.9 1.7 0.00 0.00 0.00 38 1016.0
20260505003945 72 35 0.0 0.9 0.00 0.00 0.00 38 1016.0
20260505003442 73 124 0.9 1.7 0.00 0.00 0.00 37 1015.9
20260505002938 73 184 0.9 0.9 0.00 0.00 0.00 37 1015.9
20260505002434 73 236 0.0 0.9 0.00 0.00 0.00 36 1015.9
20260505001933 74 239 1.7 2.6 0.00 0.00 0.00 35 1015.9
20260505001430 74 195 1.7 2.6 0.00 0.00 0.00 35 1015.7
20260505000927 74 79 0.0 3.5 0.00 0.00 0.00 34 1015.8
20260505000427 75 199 0.9 2.6 0.00 0.00 0.00 34 1015.9
20260504235922 75 244 0.9 2.6 0.00 0.00 0.00 34 1015.8
20260504235419 75 239 1.7 7.8 0.00 0.00 0.00 33 1015.7
20260504234915 75 139 1.7 3.5 0.00 0.00 0.00 34 1015.6
20260504234413 76 102 0.0 0.9 0.00 0.00 0.00 34 1015.6
20260504233909 76 70 0.9 2.6 0.00 0.00 0.00 33 1015.6
20260504233405 76 106 5.2 6.1 0.00 0.00 0.00 33 1015.6
20260504232902 76 212 2.6 5.2 0.00 0.00 0.00 33 1015.5
20260504232359 77 217 1.7 1.7 0.00 0.00 0.00 32 1015.4
20260504231856 77 228 2.6 2.6 0.00 0.00 0.00 32 1015.3
20260504231352 77 256 1.7 3.5 0.00 0.00 0.00 31 1015.2
20260504230848 78 66 0.0 2.6 0.00 0.00 0.00 30 1015.2
20260504230346 78 194 0.0 5.2 0.00 0.00 0.00 29 1015.3
20260504225845 78 306 0.9 1.7 0.00 0.00 0.00 29 1015.2
20260504225341 78 62 0.9 0.9 0.00 0.00 0.00 28 1015.4
20260504224838 78 236 0.0 2.6 0.00 0.00 0.00 28 1015.2
20260504224335 78 82 0.0 1.7 0.00 0.00 0.00 28 1015.3
20260504223832 78 5 1.7 2.6 0.00 0.00 0.00 28 1015.4
20260504223327 79 23 1.7 2.6 0.00 0.00 0.00 27 1015.3
20260504222824 79 216 0.9 1.7 0.00 0.00 0.00 27 1015.3
20260504222321 79 75 1.7 1.7 0.00 0.00 0.00 27 1015.2
20260504221820 79 309 1.7 2.6 0.00 0.00 0.00 27 1015.5
20260504221316 79 172 3.5 5.2 0.00 0.00 0.00 26 1015.3
20260504220813 79 232 1.7 5.2 0.00 0.00 0.00 27 1015.2
20260504220309 79 191 0.9 1.7 0.00 0.00 0.00 27 1015.4
20260504215807 79 306 1.7 2.6 0.00 0.00 0.00 27 1015.3
20260504215304 79 356 1.7 5.2 0.00 0.00 0.00 27 1015.4
20260504214759 80 352 0.9 1.7 0.00 0.00 0.00 27 1015.3
20260504214256 80 197 2.6 2.6 0.00 0.00 0.00 27 1015.5
20260504213753 80 291 0.0 1.7 0.00 0.00 0.00 27 1015.2
20260504213249 81 312 0.9 7.0 0.00 0.00 0.00 27 1015.4
20260504212746 81 190 0.0 0.9 0.00 0.00 0.00 27 1015.5
20260504212242 81 236 2.6 3.5 0.00 0.00 0.00 26 1015.5
20260504211740 82 115 1.7 5.2 0.00 0.00 0.00 25 1015.5
20260504211236 81 341 0.9 2.6 0.00 0.00 0.00 26 1015.5
20260504210734 82 317 1.7 3.5 0.00 0.00 0.00 26 1015.3
20260504210231 81 241 3.5 5.2 0.00 0.00 0.00 26 1015.6
20260504205727 80 341 0.9 1.7 0.00 0.00 0.00 27 1015.7
20260504205225 80 328 0.9 7.0 0.00 0.00 0.00 27 1015.7
20260504204723 81 229 2.6 3.5 0.00 0.00 0.00 26 1015.5
20260504204221 82 246 0.9 2.6 0.00 0.00 0.00 26 1015.7
20260504203721 81 192 0.9 2.6 0.00 0.00 0.00 27 1015.7
20260504203218 81 252 1.7 3.5 0.00 0.00 0.00 27 1015.7
20260504202717 80 99 1.7 3.5 0.00 0.00 0.00 28 1015.6
20260504202215 80 127 1.7 6.1 0.00 0.00 0.00 27 1016.0
20260504201712 81 66 0.9 0.9 0.00 0.00 0.00 29 1015.9
20260504201209 81 220 1.7 3.5 0.00 0.00 0.00 27 1016.0
20260504200707 81 23 0.0 6.1 0.00 0.00 0.00 28 1016.2
20260504200203 80 215 2.6 5.2 0.00 0.00 0.00 27 1016.2
20260504195659 81 192 1.7 6.1 0.00 0.00 0.00 27 1015.9
20260504195155 80 231 1.7 3.5 0.00 0.00 0.00 28 1016.2
20260504194652 82 206 3.5 7.0 0.00 0.00 0.00 27 1016.1
20260504194148 82 256 1.7 2.6 0.00 0.00 0.00 27 1016.1
20260504193645 82 69 0.0 6.1 0.00 0.00 0.00 27 1016.4
20260504193143 81 8 0.0 3.5 0.00 0.00 0.00 27 1016.3
20260504192640 82 141 1.7 3.5 0.00 0.00 0.00 26 1016.2
20260504192138 81 232 1.7 3.5 0.00 0.00 0.00 26 1016.3
20260504191636 80 94 2.6 3.5 0.00 0.00 0.00 27 1016.4
20260504191132 80 115 1.7 2.6 0.00 0.00 0.00 28 1016.4
20260504190628 80 238 0.9 1.7 0.00 0.00 0.00 28 1016.7
20260504190125 81 317 0.9 1.7 0.00 0.00 0.00 26 1016.5
20260504185622 83 90 0.0 1.7 0.00 0.00 0.00 27 1016.8
20260504185118 82 54 0.0 2.6 0.00 0.00 0.00 28 1016.6
20260504184614 80 179 0.9 2.6 0.00 0.00 0.00 29 1016.9
20260504184109 81 221 2.6 5.2 0.00 0.00 0.00 27 1017.1
20260504183607 80 231 0.0 0.9 0.00 0.00 0.00 28 1016.9
20260504183105 79 70 0.9 3.5 0.00 0.00 0.00 29 1017.1
20260504182601 79 247 3.5 3.5 0.00 0.00 0.00 27 1017.2
20260504182059 79 53 0.9 2.6 0.00 0.00 0.00 29 1017.1
20260504181556 79 195 0.9 5.2 0.00 0.00 0.00 28 1017.3
20260504181054 80 72 0.0 2.6 0.00 0.00 0.00 28 1017.2
20260504180553 81 211 0.9 3.5 0.00 0.00 0.00 28 1017.3
20260504180051 80 52 0.9 1.7 0.00 0.00 0.00 27 1017.4
20260504175548 78 48 0.9 5.2 0.00 0.00 0.00 28 1017.4
20260504175045 78 20 0.9 5.2 0.00 0.00 0.00 27 1017.6
20260504174543 79 278 0.9 1.7 0.00 0.00 0.00 28 1017.4
20260504174039 78 117 0.9 5.2 0.00 0.00 0.00 30 1017.6
20260504173536 79 326 1.7 3.5 0.00 0.00 0.00 30 1017.5
20260504173034 80 359 0.9 1.7 0.00 0.00 0.00 28 1017.7
20260504172530 80 12 0.9 2.6 0.00 0.00 0.00 28 1017.8
20260504172026 80 28 0.9 0.9 0.00 0.00 0.00 28 1017.9
20260504171523 78 66 0.0 2.6 0.00 0.00 0.00 29 1018.1
20260504171020 78 310 0.9 6.1 0.00 0.00 0.00 30 1018.2
20260504170516 77 225 1.7 1.7 0.00 0.00 0.00 28 1017.9
20260504160436 75 172 3.5 6.1 0.00 0.00 0.00 37 1019.1